EW1152 Weather Reports


time (UTC)temp
F
wind
direction
speed
knots
gust
knots
rain 1hr
in
rain 24hr
in
rain mn
in
humidity
%
barometer
mb
20260507075850 52 5 0.9 4.3 0.04 0.10 0.04 57 1006.6
20260507075349 52 272 0.9 6.1 0.03 0.09 0.03 57 1007.1
20260507075109 52 268 1.7 6.1 0.03 0.09 0.03 57 1007.0
20260507074347 52 304 1.7 6.1 0.03 0.09 0.03 57 1006.9
20260507073841 53 255 0.9 4.3 0.03 0.09 0.03 57 1006.9
20260507073342 53 175 1.7 7.8 0.01 0.07 0.02 57 1006.3
20260507072829 53 259 3.5 9.6 0.01 0.07 0.01 57 1006.9
20260507072328 53 231 3.5 9.6 0.01 0.07 0.01 57 1006.7
20260507072052 53 302 2.6 8.7 0.00 0.06 0.00 57 1006.1
20260507071329 54 282 1.7 7.8 0.00 0.06 0.00 57 1006.0
20260507071304 54 274 1.7 5.2 0.00 0.06 0.00 58 1005.8
20260507070319 54 260 1.7 7.0 0.00 0.06 0.00 58 1005.6
20260507065820 54 338 3.5 11.3 0.00 0.06 0.00 58 1005.4
20260507065320 54 311 3.5 11.3 0.00 0.06 0.00 58 1005.6
20260507064816 55 275 2.6 8.7 0.00 0.06 0.00 59 1005.8
20260507064315 55 274 2.6 10.4 0.00 0.06 0.00 59 1005.7
20260507063815 55 291 2.6 10.4 0.00 0.06 0.00 59 1005.7
20260507063317 56 299 1.7 5.2 0.00 0.06 0.00 59 1005.9
20260507062814 56 233 1.7 7.8 0.00 0.06 0.00 59 1005.9
20260507062314 56 262 2.6 7.8 0.00 0.06 0.00 59 1005.9
20260507061817 56 342 1.7 7.8 0.00 0.06 0.00 59 1005.8
20260507061315 56 311 0.9 3.5 0.00 0.06 0.00 59 1005.9
20260507060813 56 298 0.9 3.5 0.00 0.06 0.00 59 1005.8
20260507060315 56 316 0.9 4.3 0.00 0.06 0.00 59 1005.8
20260507060300 56 241 1.7 5.2 0.00 0.06 0.00 59 1005.8
20260507055305 57 311 2.6 5.2 0.00 0.06 0.00 59 1005.9
20260507055025 57 274 1.7 5.2 0.00 0.06 0.00 59 1006.0
20260507054257 57 319 2.6 8.7 0.00 0.06 0.00 60 1006.1
20260507053757 57 326 2.6 8.7 0.00 0.06 0.00 60 1006.0
20260507053250 57 327 1.7 7.8 0.00 0.06 0.00 60 1006.1
20260507052749 58 315 1.7 5.2 0.00 0.06 0.00 60 1006.0
20260507052249 58 327 0.9 5.2 0.00 0.06 0.00 60 1006.3
20260507051751 58 341 0.0 2.6 0.00 0.06 0.00 60 1006.2
20260507051247 58 284 0.9 3.5 0.00 0.06 0.00 60 1006.2
20260507050704 58 305 0.9 3.5 0.00 0.06 0.00 60 1006.3
20260507050143 58 327 0.0 2.6 0.00 0.06 0.00 61 1006.0
20260507045643 58 269 0.9 3.5 0.00 0.06 0.00 61 1006.1
20260507045122 59 326 0.9 3.5 0.00 0.06 0.00 61 1006.0
20260507044616 59 290 0.9 4.3 0.01 0.06 0.00 61 1006.2
20260507044343 59 263 0.9 4.3 0.01 0.06 0.00 61 1006.0
20260507043615 59 301 0.0 2.6 0.01 0.06 0.00 61 1005.9
20260507043118 59 310 0.0 1.7 0.01 0.06 0.00 61 1005.9
20260507042837 59 269 0.0 0.9 0.01 0.06 0.00 61 1006.0
20260507042112 59 269 0.9 3.5 0.01 0.06 0.00 61 1005.9
20260507041610 59 238 0.9 3.5 0.01 0.06 0.00 61 1005.9
20260507041044 59 211 0.0 2.6 0.01 0.06 0.00 61 1005.8
20260507040543 59 225 0.0 2.6 0.01 0.06 0.00 61 1005.9
20260507040023 60 198 0.0 1.7 0.01 0.06 0.00 61 1005.9
20260507035516 60 280 0.9 3.5 0.01 0.06 0.06 61 1006.0
20260507035016 60 280 1.7 4.3 0.01 0.06 0.06 61 1005.9
20260507034732 59 230 0.9 4.3 0.00 0.05 0.05 61 1006.1
20260507033958 60 284 1.7 5.2 0.00 0.05 0.05 61 1006.0
20260507033710 59 129 1.7 7.0 0.00 0.05 0.05 61 1006.0
20260507033209 59 205 1.7 7.8 0.00 0.05 0.05 61 1005.9
20260507032439 59 250 1.7 8.7 0.00 0.05 0.05 61 1006.0
20260507032159 59 227 1.7 8.7 0.00 0.05 0.05 61 1005.9
20260507031429 59 209 0.9 8.7 0.00 0.05 0.05 61 1005.8
20260507030922 59 241 0.9 8.7 0.00 0.05 0.05 61 1005.7
20260507030417 59 159 0.9 6.1 0.00 0.05 0.05 61 1005.7
20260507025919 59 221 0.9 5.2 0.00 0.05 0.05 61 1005.8
20260507025417 59 215 0.9 5.2 0.00 0.05 0.05 61 1005.7
20260507024911 59 244 1.7 7.0 0.00 0.05 0.05 61 1005.7
20260507024354 59 165 2.6 12.2 0.00 0.05 0.05 61 1005.7
20260507023848 59 212 0.9 7.8 0.00 0.05 0.05 61 1005.7
20260507023342 59 170 0.9 3.5 0.00 0.05 0.05 61 1005.6
20260507022836 59 209 1.7 8.7 0.00 0.05 0.05 61 1005.7
20260507022330 59 355 1.7 8.7 0.00 0.05 0.05 61 1005.7
20260507021826 59 179 1.7 4.3 0.00 0.05 0.05 61 1005.7
20260507021315 59 220 0.9 4.3 0.00 0.05 0.05 61 1005.7
20260507020817 59 190 0.9 4.3 0.00 0.05 0.05 61 1005.7
20260507020314 59 164 1.7 6.1 0.00 0.05 0.05 61 1005.7
20260507015814 59 246 0.9 6.1 0.00 0.05 0.05 62 1005.9
20260507015259 59 161 0.9 5.2 0.00 0.05 0.05 62 1005.7
20260507014759 59 286 0.9 4.3 0.00 0.05 0.05 62 1005.6
20260507014237 59 248 0.9 4.3 0.00 0.05 0.05 62 1005.8
20260507013732 59 244 0.9 2.6 0.00 0.05 0.05 62 1005.8
20260507013226 59 246 0.9 4.3 0.00 0.05 0.05 62 1005.8
20260507012720 59 196 1.7 6.1 0.00 0.05 0.05 62 1005.6
20260507012215 58 204 0.9 6.1 0.00 0.05 0.05 62 1005.9
20260507011716 59 173 0.9 4.3 0.00 0.05 0.05 62 1005.9
20260507011214 58 212 1.7 8.7 0.00 0.05 0.05 62 1006.0
20260507010930 58 194 1.7 8.7 0.00 0.05 0.05 62 1006.0
20260507010209 58 223 0.9 6.1 0.00 0.05 0.05 62 1006.0
20260507005704 58 211 0.9 7.8 0.00 0.05 0.05 62 1006.1
20260507005204 58 177 0.9 7.8 0.00 0.05 0.05 62 1006.1
20260507004656 58 195 0.9 8.7 0.00 0.05 0.05 62 1006.1
20260507004154 58 134 0.9 8.7 0.00 0.05 0.05 62 1006.0
20260507003654 58 210 0.9 5.2 0.00 0.05 0.05 62 1006.1
20260507003152 58 196 0.9 4.3 0.00 0.05 0.05 62 1006.1
20260507002652 58 144 1.7 6.1 0.00 0.05 0.05 62 1006.1
20260507002152 58 219 2.6 7.8 0.00 0.05 0.05 62 1006.0
20260507001651 58 246 2.6 8.7 0.00 0.05 0.05 62 1005.8
20260507001150 58 238 1.7 8.7 0.00 0.05 0.05 63 1005.9
20260507000650 58 237 1.7 7.8 0.00 0.05 0.05 63 1005.9
20260507000147 58 78 0.9 7.8 0.00 0.05 0.05 63 1006.0
20260506235648 58 238 0.9 6.1 0.00 0.05 0.05 63 1005.9
20260506235410 58 133 1.7 7.8 0.00 0.05 0.05 63 1005.9
20260506234644 58 138 0.9 7.8 0.00 0.05 0.05 63 1005.7
20260506234402 58 243 1.7 7.8 0.00 0.05 0.05 63 1005.9
20260506233638 58 202 1.7 7.8 0.00 0.05 0.05 63 1005.8
20260506233137 58 314 1.7 8.7 0.00 0.05 0.05 63 1005.7
20260506232635 59 194 1.7 8.7 0.00 0.05 0.05 63 1005.6
20260506232127 59 173 0.9 6.1 0.00 0.05 0.05 63 1005.7
20260506231847 59 166 1.7 5.2 0.00 0.05 0.05 64 1005.8
20260506231126 59 171 0.9 6.1 0.00 0.05 0.05 64 1005.7
20260506230628 59 279 1.7 6.1 0.00 0.05 0.05 64 1005.9
20260506230127 59 194 1.7 6.1 0.00 0.05 0.05 64 1005.9
20260506225628 59 128 1.7 6.1 0.00 0.05 0.05 64 1005.9
20260506225116 59 200 1.7 5.2 0.00 0.05 0.05 64 1006.0
20260506224607 59 195 0.9 6.1 0.00 0.05 0.05 65 1006.0
20260506224108 59 117 1.7 6.1 0.01 0.05 0.05 65 1005.9
20260506223555 59 205 1.7 7.8 0.01 0.05 0.05 65 1005.8
20260506223047 59 178 1.7 7.8 0.01 0.05 0.05 66 1005.8
20260506222541 59 200 1.7 6.1 0.01 0.05 0.05 66 1005.8
20260506222035 59 185 0.9 7.8 0.01 0.05 0.05 66 1005.8
20260506221533 60 229 0.9 7.8 0.01 0.05 0.05 67 1005.9
20260506221514 60 117 1.7 7.8 0.02 0.05 0.05 67 1006.0
20260506220741 60 263 1.7 8.7 0.02 0.05 0.05 67 1006.1
20260506220011 60 152 2.6 8.7 0.02 0.05 0.05 67 1006.3
20260506215512 60 204 1.7 8.7 0.02 0.05 0.05 67 1006.3
20260506215011 60 228 1.7 4.3 0.02 0.05 0.05 67 1006.3
20260506214453 60 90 1.7 7.8 0.02 0.05 0.05 67 1006.3
20260506213947 60 195 0.9 7.8 0.01 0.04 0.04 67 1006.2
20260506213703 60 203 1.7 7.8 0.01 0.04 0.04 66 1006.3
20260506212939 60 137 1.7 8.7 0.02 0.04 0.04 66 1006.4
20260506212425 60 181 1.7 8.7 0.02 0.04 0.04 66 1006.5
20260506211919 60 355 1.7 7.8 0.02 0.04 0.04 66 1006.5
20260506211412 60 194 1.7 8.7 0.02 0.04 0.04 66 1006.5
20260506210910 60 210 1.7 8.7 0.01 0.03 0.03 66 1006.7
20260506210400 60 267 1.7 5.2 0.01 0.03 0.03 66 1006.5
20260506205855 61 224 0.9 5.2 0.01 0.03 0.03 65 1006.5
20260506205352 61 140 0.9 4.3 0.01 0.03 0.03 66 1006.6
20260506204849 61 273 0.9 6.1 0.01 0.03 0.03 65 1006.6
20260506204337 61 268 1.7 7.8 0.01 0.03 0.03 64 1006.7
20260506204054 61 261 0.9 8.7 0.02 0.03 0.03 65 1006.8
20260506203325 61 188 1.7 8.7 0.02 0.03 0.03 64 1006.8
20260506202819 61 189 1.7 5.2 0.01 0.02 0.02 64 1006.8
20260506202314 61 15 1.7 6.1 0.01 0.02 0.02 64 1006.9
20260506202033 61 215 0.9 6.1 0.01 0.02 0.02 64 1006.9
20260506201536 61 87 0.9 2.6 0.01 0.02 0.02 64 1006.9
20260506200815 61 126 1.7 9.6 0.02 0.02 0.02 64 1006.8
20260506200315 62 212 2.6 9.6 0.02 0.02 0.02 63 1006.9
20260506195804 62 214 2.6 9.6 0.02 0.02 0.02 63 1006.9
20260506195306 62 261 2.6 10.4 0.02 0.02 0.02 63 1006.9
20260506194805 62 208 3.5 12.2 0.02 0.02 0.02 62 1006.9
20260506194533 62 215 2.6 12.2 0.02 0.02 0.02 61 1006.8
20260506194243 63 216 2.6 10.4 0.01 0.01 0.01 60 1006.9
20260506193744 63 257 3.5 10.4 0.01 0.01 0.01 60 1006.9
20260506192801 63 160 3.5 11.3 0.01 0.01 0.01 59 1007.0
20260506192259 63 222 2.6 11.3 0.01 0.01 0.01 59 1007.1
20260506191801 64 227 1.7 8.7 0.01 0.01 0.01 59 1006.9
20260506191755 64 197 2.6 9.6 0.01 0.01 0.01 59 1007.0
20260506190758 64 128 3.5 13.0 0.00 0.00 0.00 59 1007.0
20260506190522 65 326 3.5 13.0 0.00 0.00 0.00 57 1007.1
20260506185759 65 193 3.5 13.0 0.00 0.00 0.00 57 1007.2
20260506185253 66 196 3.5 11.3 0.00 0.00 0.00 56 1007.1
20260506184755 67 205 3.5 11.3 0.00 0.00 0.00 55 1007.1
20260506184512 67 172 3.5 11.3 0.00 0.00 0.00 55 1007.0
20260506183745 67 211 3.5 13.9 0.00 0.00 0.00 54 1007.0
20260506183245 68 207 3.5 13.9 0.00 0.00 0.00 54 1007.1
20260506182744 68 150 3.5 8.7 0.00 0.00 0.00 54 1007.2
20260506182243 69 246 2.6 8.7 0.00 0.00 0.00 54 1007.2
20260506181741 69 194 2.6 11.3 0.00 0.00 0.00 53 947.9
20260506181245 69 148 3.5 11.3 0.00 0.00 0.00 53 947.9
20260506180742 69 223 4.3 14.8 0.00 0.00 0.00 52 1007.3
20260506180242 70 284 4.3 14.8 0.00 0.00 0.00 52 1007.3
20260506175743 70 220 3.5 11.3 0.00 0.00 0.00 52 769.9
20260506175239 70 246 4.3 11.3 0.00 0.00 0.00 52 1007.3
20260506174739 71 55 3.5 13.9 0.00 0.00 0.00 52 1007.5
20260506174721 71 200 3.5 13.9 0.00 0.00 0.00 52 1007.2
20260506173737 71 229 4.3 14.8 0.00 0.00 0.00 52 1007.2
20260506173457 72 89 5.2 14.8 0.00 0.00 0.00 52 1007.4
20260506172737 72 124 4.3 12.2 0.00 0.00 0.00 52 1007.5
20260506172235 72 192 4.3 12.2 0.00 0.00 0.00 52 1007.7
20260506171737 72 57 5.2 12.2 0.00 0.00 0.00 52 1007.7
20260506171237 72 167 5.2 15.6 0.00 0.00 0.00 52 1007.6
20260506170732 73 254 4.3 15.6 0.00 0.00 0.00 53 1007.6
20260506170229 72 105 3.5 11.3 0.00 0.00 0.00 53 1007.6
20260506165730 72 68 4.3 14.8 0.00 0.00 0.00 53 1007.6
20260506165224 72 185 5.2 14.8 0.00 0.00 0.00 53 1007.7
20260506164942 72 155 4.3 13.9 0.00 0.00 0.00 53 1007.6
20260506164212 72 222 3.5 13.9 0.00 0.00 0.00 53 1007.7
20260506163706 72 141 3.5 11.3 0.00 0.00 0.00 53 1007.9
20260506163426 72 192 4.3 14.8 0.00 0.00 0.00 53 1007.9
20260506162654 72 205 3.5 14.8 0.00 0.00 0.00 53 889.3
20260506162148 72 211 3.5 13.0 0.00 0.00 0.00 53 948.8
20260506161640 72 281 5.2 13.0 0.00 0.00 0.00 53 1008.3
20260506161135 72 157 4.3 16.5 0.00 0.00 0.00 53 1008.3
20260506160629 72 238 3.5 16.5 0.00 0.00 0.00 53 1008.5
20260506160123 72 188 4.3 15.6 0.00 0.00 0.00 53 1008.4
20260506155616 73 227 5.2 15.6 0.00 0.00 0.00 53 1008.4
20260506155110 73 184 4.3 11.3 0.00 0.00 0.00 54 1008.5
20260506154603 73 223 3.5 17.4 0.00 0.00 0.00 54 1008.5
20260506154057 73 190 4.3 17.4 0.00 0.00 0.00 54 1008.6
20260506153555 73 178 4.3 12.2 0.00 0.00 0.00 55 1008.6
20260506153045 73 167 3.5 13.0 0.00 0.00 0.00 55 1008.7
20260506152033 72 152 4.3 12.2 0.00 0.00 0.00 55 1009.0
20260506151526 72 153 3.5 12.2 0.00 0.00 0.00 55 1009.0
20260506151020 72 202 3.5 9.6 0.00 0.00 0.00 56 1009.0
20260506150515 71 351 3.5 9.6 0.00 0.00 0.00 56 1009.0
20260506150009 71 202 2.6 13.0 0.00 0.00 0.00 56 1009.0
20260506145502 71 192 3.5 13.0 0.00 0.00 0.00 55 1009.0
20260506144956 71 213 2.6 13.0 0.00 0.00 0.00 55 1008.9
20260506144452 71 210 3.5 10.4 0.00 0.00 0.00 55 1009.0
20260506144209 71 150 4.3 14.8 0.00 0.00 0.00 55 1009.0
20260506143439 71 219 5.2 14.8 0.00 0.00 0.00 55 1009.0
20260506142933 71 165 4.3 15.6 0.00 0.00 0.00 55 1008.9
20260506142428 71 224 4.3 15.6 0.00 0.00 0.00 56 1008.8
20260506141921 71 223 4.3 13.9 0.00 0.00 0.00 56 1008.7
20260506141636 71 207 3.5 13.9 0.00 0.00 0.00 57 1008.9
20260506140909 71 154 3.5 8.7 0.00 0.00 0.00 57 1009.0
20260506140403 70 157 3.5 10.4 0.00 0.00 0.00 57 1009.0
20260506135857 70 200 4.3 13.0 0.00 0.00 0.00 57 1009.0
20260506135353 70 225 2.6 13.0 0.00 0.00 0.00 57 1009.1
20260506134853 70 236 2.6 11.3 0.00 0.00 0.00 58 1009.1
20260506134615 70 55 2.6 9.6 0.00 0.00 0.00 58 1008.9
20260506133852 70 252 2.6 9.6 0.00 0.00 0.00 59 1009.0
20260506133352 69 264 3.5 12.2 0.00 0.00 0.00 59 1009.1
20260506133112 69 214 4.3 12.2 0.00 0.00 0.00 58 1009.4
20260506132349 68 213 3.5 11.3 0.00 0.00 0.00 59 1009.7
20260506131851 68 320 2.6 7.8 0.00 0.00 0.00 59 1009.6
20260506131348 67 219 2.6 11.3 0.00 0.00 0.00 59 1009.5
20260506130848 67 211 2.6 11.3 0.00 0.00 0.00 59 1009.7
20260506130349 67 147 2.6 8.7 0.00 0.00 0.00 59 1009.5
20260506125823 66 261 2.6 8.7 0.00 0.00 0.00 59 1009.5
20260506125540 66 159 3.5 8.7 0.00 0.00 0.00 59 1009.5
20260506124823 65 194 2.6 9.6 0.00 0.00 0.00 59 1009.8
20260506124326 65 269 2.6 11.3 0.00 0.00 0.00 59 1009.8
20260506123821 64 240 2.6 11.3 0.00 0.00 0.00 60 1009.8
20260506123550 64 223 2.6 10.4 0.00 0.00 0.00 60 1009.7
20260506122822 64 139 2.6 13.0 0.00 0.00 0.00 59 1009.7
20260506122318 64 263 2.6 13.0 0.00 0.00 0.00 59 1009.8
20260506121818 63 213 2.6 12.2 0.00 0.00 0.00 59 1009.8
20260506121318 63 239 1.7 8.7 0.00 0.00 0.00 59 1009.6
20260506120817 63 40 2.6 9.6 0.00 0.00 0.00 59 1009.7
20260506120317 62 212 2.6 9.6 0.00 0.00 0.00 59 1009.6
20260506120040 62 123 1.7 7.0 0.00 0.00 0.00 59 1009.9
20260506115538 61 261 1.7 6.1 0.00 0.00 0.00 59 1010.0
20260506114816 61 205 1.7 6.1 0.00 0.00 0.00 58 1010.0
20260506114534 61 53 0.9 4.3 0.00 0.00 0.00 58 1010.0
20260506114259 61 227 1.7 7.0 0.00 0.00 0.00 58 1010.1
20260506113522 61 140 0.9 7.0 0.00 0.00 0.00 57 1010.3
20260506112758 61 251 1.7 6.1 0.00 0.00 0.00 57 1010.3
20260506112301 61 196 1.7 6.1 0.00 0.00 0.00 57 1010.2
20260506111735 61 114 0.9 5.2 0.00 0.00 0.00 57 1010.1
20260506111235 61 148 0.9 4.3 0.00 0.00 0.00 56 1010.0
20260506110729 60 235 1.7 5.2 0.00 0.00 0.00 56 1010.0
20260506110223 60 174 2.6 6.1 0.00 0.00 0.00 55 1010.0
20260506105717 60 16 1.7 6.1 0.00 0.00 0.00 54 1009.8
20260506105212 59 124 1.7 5.2 0.00 0.00 0.00 53 1009.7
20260506104714 59 197 1.7 6.1 0.00 0.00 0.00 52 1009.8
20260506104414 59 190 0.9 6.1 0.00 0.00 0.00 50 1009.8
20260506103653 59 223 0.9 4.3 0.00 0.00 0.00 48 1009.8
20260506103141 59 242 0.9 5.2 0.00 0.00 0.00 48 1009.8
20260506102635 59 161 0.9 5.2 0.00 0.00 0.00 47 1009.9
20260506102128 59 212 0.9 4.3 0.00 0.00 0.00 47 1009.7
20260506101847 59 183 1.7 8.7 0.00 0.00 0.00 47 1009.7
20260506101119 59 171 1.7 8.7 0.00 0.00 0.00 47 1009.7
20260506100613 59 195 0.9 4.3 0.00 0.00 0.00 47 1009.6
20260506100321 59 178 1.7 11.3 0.00 0.00 0.00 47 1009.5
20260506095600 59 200 1.7 11.3 0.00 0.00 0.00 47 1009.5
20260506095054 58 214 0.9 5.2 0.00 0.00 0.00 47 1009.5
20260506094547 59 143 0.9 3.5 0.00 0.00 0.00 47 1009.5
20260506094041 59 194 0.9 7.8 0.00 0.00 0.00 47 1009.3
20260506093535 59 106 1.7 7.8 0.00 0.00 0.00 47 1009.3
20260506093253 59 153 1.7 6.1 0.00 0.00 0.00 47 1009.3
20260506092523 59 281 1.7 6.1 0.00 0.00 0.00 47 1009.4
20260506092019 59 217 1.7 5.2 0.00 0.00 0.00 47 1009.4
20260506091728 59 158 1.7 5.2 0.00 0.00 0.00 47 1009.4
20260506091005 59 280 1.7 9.6 0.00 0.00 0.00 47 1009.5
20260506090501 59 188 1.7 9.6 0.00 0.00 0.00 47 1009.4
20260506090217 59 163 1.7 8.7 0.00 0.00 0.00 47 1009.4
20260506085456 59 189 1.7 8.7 0.00 0.00 0.00 46 1009.5
20260506084953 59 107 0.9 8.7 0.00 0.00 0.00 46 1009.5
20260506084456 60 257 0.9 6.1 0.00 0.00 0.00 46 1009.7
20260506084207 60 211 1.7 7.8 0.00 0.00 0.00 46 831.0
20260506083443 60 146 2.6 10.4 0.00 0.00 0.00 46 652.4
20260506082942 60 191 2.6 10.4 0.00 0.00 0.00 46 1009.5
20260506082443 60 216 2.6 9.6 0.00 0.00 0.00 46 1009.7
20260506081936 60 207 3.5 16.5 0.00 0.00 0.00 46 1009.6
20260506081437 60 219 3.5 16.5 0.00 0.00 0.00 46 1009.7
20260506080933 60 215 2.6 9.6 0.00 0.00 0.00 46 950.0
20260506080652 60 198 2.6 11.3 0.00 0.00 0.00 46 890.5